Weather History for Troy, MI

Change the Weather History Date:

Friday, May 10, 2013

  Actual Average (KDET) Record (KDET)
Temperature  
Mean Temperature 56 °F -  
Max Temperature 69 °F 68 °F 85 °F (1987)
Min Temperature 42 °F 47 °F 30 °F (1966)
Degree Days  
Heating Degree Days 10    
Growing Degree Days 6 (Base 50)    
Moisture  
Dew Point 52 °F    
Average Humidity 79    
Maximum Humidity 99    
Minimum Humidity 34    
Precipitation  
Precipitation 0.00 in - - ()
Sea Level Pressure  
Sea Level Pressure 29.84 in    
Wind  
Wind Speed 6 mph (WNW)    
Max Wind Speed 15 mph    
Max Gust Speed 21 mph    
Visibility 9 miles    
Events Rain    
Averages and records for this station are not official NWS values.
T = Trace of Precipitation, MM = Missing Value Source: NWS Daily Summary

Daily Weather History Graph

Daily Weather History Graph

Search for Another Location

Airport:

Trip Planner

Search our weather history database for the weather conditions in past years. The results will help you decide how hot, cold, wet, or windy it might be!

Date:

Astronomy

May. 10, 2013 Rise Set
Actual Time 6:15 AM EDT 8:42 PM EDT
Civil Twilight 5:44 AM EDT 9:14 PM EDT
Nautical Twilight 5:04 AM EDT 9:54 PM EDT
Astronomical Twilight 4:20 AM EDT 10:39 PM EDT
Moon 6:39 AM EDT (5/10) 9:31 PM EDT (5/10)
Length of Visible Light 15h 30m
Length of Day
14h 27m
New Moon, 0% of the Moon is Illuminated
May 10
New Moon
May 18
First Quarter
May 25
Full
May 31
Last Quarter
Jun 8
New

Hourly Weather History & Observations

Time (EDT) Temp. Windchill Dew Point Humidity Pressure Visibility Wind Dir Wind Speed Gust Speed Precip Events Conditions
12:15 AM 67.6 °F - 38.1 °F 34% 29.93 in 10.0 mi South 3.5 mph - N/A   Mostly Cloudy
12:35 AM 68.2 °F - 38.8 °F 34% 29.93 in 10.0 mi Calm Calm - N/A   Overcast
12:54 AM 68.0 °F - 39.6 °F 35% 29.93 in 10.0 mi Calm Calm - N/A   Overcast
1:15 AM 66.4 °F - 42.6 °F 42% 29.93 in 10.0 mi Calm Calm - N/A   Overcast
2:15 AM 66.6 °F - 49.1 °F 53% 29.93 in 10.0 mi SW 8.1 mph - N/A   Overcast
2:35 AM 66.0 °F - 50.9 °F 58% 29.92 in 10.0 mi WSW 6.9 mph - N/A   Overcast
2:55 AM 65.5 °F - 53.1 °F 64% 29.91 in 10.0 mi West 5.8 mph - N/A Rain Light Rain
3:15 AM 62.8 °F - 57.0 °F 81% 29.90 in 7.0 mi Calm Calm - N/A Rain Rain
3:35 AM 61.7 °F - 58.1 °F 88% 29.89 in 10.0 mi Calm Calm - N/A   Light Drizzle
3:55 AM 61.0 °F - 57.7 °F 89% 29.87 in 10.0 mi Calm Calm - N/A Rain Light Rain
4:15 AM 61.0 °F - 58.1 °F 90% 29.87 in 10.0 mi Calm Calm - N/A Rain Light Rain
4:34 AM 61.7 °F - 59.0 °F 91% 29.86 in 10.0 mi Calm Calm - N/A Rain Light Rain
4:55 AM 61.2 °F - 58.5 °F 91% 29.86 in 10.0 mi SSW 3.5 mph - N/A Rain Light Rain
5:15 AM 60.8 °F - 58.6 °F 93% 29.85 in 7.0 mi Calm Calm - N/A Rain Light Rain
5:35 AM 60.8 °F - 59.4 °F 95% 29.84 in 7.0 mi Calm Calm - N/A Rain Rain
5:55 AM 60.8 °F - 59.4 °F 95% 29.84 in 5.0 mi Calm Calm - N/A Rain Light Rain
6:14 AM 60.4 °F - 59.4 °F 96% 29.84 in 3.0 mi Calm Calm - N/A Rain Rain
6:35 AM 60.1 °F - 59.4 °F 97% 29.84 in 2.0 mi SSE 3.5 mph - N/A Rain Heavy Rain
6:55 AM 59.9 °F - 59.2 °F 97% 29.83 in 2.0 mi Calm Calm - N/A Rain Rain
7:14 AM 59.7 °F - 59.2 °F 98% 29.82 in 1.2 mi East 6.9 mph - N/A Rain Light Rain
7:35 AM 59.4 °F - 59.0 °F 99% 29.82 in 1.2 mi Calm Calm - N/A Rain Heavy Rain
8:15 AM 60.4 °F - 60.1 °F 99% 29.81 in 3.0 mi South 6.9 mph - N/A Rain Light Rain
8:35 AM 61.7 °F - 60.8 °F 97% 29.81 in 5.0 mi SSW 8.1 mph - N/A   Overcast
9:15 AM 62.6 °F - 61.0 °F 94% 29.80 in 5.0 mi SW 10.4 mph - N/A   Overcast
9:35 AM 62.8 °F - 60.8 °F 93% 29.80 in 7.0 mi SSW 8.1 mph - N/A   Overcast
9:54 AM 63.7 °F - 61.2 °F 91% 29.80 in 7.0 mi SSW 8.1 mph - N/A   Overcast
10:15 AM 65.5 °F - 61.5 °F 87% 29.80 in 10.0 mi SW 10.4 mph 16.1 mph N/A   Overcast
10:35 AM 65.5 °F - 60.8 °F 85% 29.79 in 10.0 mi SW 11.5 mph - N/A   Overcast
10:55 AM 66.9 °F - 61.2 °F 82% 29.78 in 10.0 mi SSW 9.2 mph 18.4 mph N/A   Overcast
11:15 AM 68.5 °F - 60.8 °F 76% 29.78 in 10.0 mi SW 15.0 mph 19.6 mph N/A   Overcast
11:34 AM 68.7 °F - 59.4 °F 72% 29.78 in 10.0 mi WSW 13.8 mph 20.7 mph N/A   Overcast
11:55 AM 69.1 °F - 59.9 °F 72% 29.79 in 10.0 mi SW 12.7 mph 19.6 mph N/A   Overcast
12:15 PM 69.1 °F - 59.9 °F 72% 29.78 in 10.0 mi SSW 12.7 mph 18.4 mph N/A   Overcast
12:35 PM 69.3 °F - 59.4 °F 71% 29.78 in 10.0 mi SW 12.7 mph 17.3 mph N/A   Overcast
1:15 PM 66.2 °F - 60.6 °F 82% 29.80 in 10.0 mi NW 10.4 mph 19.6 mph N/A Rain Light Rain
1:35 PM 66.2 °F - 59.9 °F 80% 29.79 in 10.0 mi WNW 8.1 mph - N/A   Mostly Cloudy
1:55 PM 68.7 °F - 59.7 °F 73% 29.80 in 10.0 mi WNW 9.2 mph 18.4 mph N/A   Scattered Clouds
2:14 PM 67.1 °F - 58.6 °F 74% 29.80 in 10.0 mi WNW 9.2 mph - N/A   Mostly Cloudy
2:35 PM 67.5 °F - 58.3 °F 72% 29.80 in 10.0 mi NNW 10.4 mph - N/A   Mostly Cloudy
2:55 PM 67.6 °F - 57.7 °F 71% 29.80 in 10.0 mi NW 10.4 mph - N/A   Scattered Clouds
3:15 PM 67.3 °F - 56.5 °F 68% 29.80 in 10.0 mi WNW 9.2 mph - N/A   Scattered Clouds
3:35 PM 67.1 °F - 56.1 °F 68% 29.80 in 10.0 mi West 8.1 mph 19.6 mph N/A   Mostly Cloudy
3:55 PM 64.8 °F - 55.0 °F 71% 29.80 in 10.0 mi NW 12.7 mph 18.4 mph N/A   Scattered Clouds
4:15 PM 60.3 °F - 52.2 °F 75% 29.81 in 10.0 mi NW 12.7 mph 20.7 mph N/A   Mostly Cloudy
4:35 PM 57.6 °F - 50.0 °F 76% 29.82 in 10.0 mi NW 12.7 mph - N/A   Overcast
4:55 PM 56.3 °F - 49.1 °F 77% 29.82 in 10.0 mi NW 12.7 mph - N/A   Mostly Cloudy
5:15 PM 56.1 °F - 48.9 °F 77% 29.81 in 10.0 mi NW 9.2 mph 18.4 mph N/A   Mostly Cloudy
5:35 PM 56.5 °F - 48.9 °F 76% 29.81 in 10.0 mi NNW 8.1 mph - N/A   Mostly Cloudy
5:55 PM 56.3 °F - 48.2 °F 74% 29.81 in 10.0 mi NNW 13.8 mph 18.4 mph N/A   Overcast
6:15 PM 54.1 °F - 46.8 °F 76% 29.82 in 10.0 mi NW 11.5 mph 17.3 mph N/A   Overcast
6:34 PM 52.2 °F - 45.5 °F 78% 29.82 in 10.0 mi NNW 12.7 mph - N/A   Overcast
6:55 PM 51.3 °F - 44.6 °F 78% 29.82 in 10.0 mi NW 9.2 mph - N/A   Overcast
7:15 PM 49.5 °F - 43.7 °F 81% 29.82 in 10.0 mi NNW 11.5 mph 17.3 mph N/A   Overcast
7:35 PM 49.3 °F - 43.5 °F 81% 29.83 in 10.0 mi NNW 8.1 mph - N/A   Overcast
7:55 PM 48.9 °F - 43.2 °F 80% 29.84 in 10.0 mi NW 10.4 mph - N/A   Overcast
8:15 PM 47.7 °F - 42.6 °F 83% 29.84 in 10.0 mi NNW 12.7 mph 17.3 mph N/A   Overcast
8:35 PM 47.3 °F - 42.1 °F 82% 29.85 in 10.0 mi North 12.7 mph - N/A   Overcast
8:55 PM 46.0 °F 41.0 °F 41.9 °F 85% 29.85 in 10.0 mi North 10.4 mph 17.3 mph N/A   Overcast
9:15 PM 45.0 °F 38.9 °F 41.2 °F 87% 29.86 in 10.0 mi NNW 12.7 mph 16.1 mph N/A   Overcast
9:35 PM 44.2 °F 38.0 °F 40.1 °F 85% 29.87 in 10.0 mi NNW 12.7 mph 18.4 mph N/A   Overcast
9:55 PM 44.1 °F 37.7 °F 40.1 °F 86% 29.88 in 10.0 mi NNW 12.7 mph 18.4 mph N/A   Overcast
10:15 PM 43.9 °F 38.3 °F 39.9 °F 86% 29.88 in 10.0 mi North 10.4 mph 16.1 mph N/A   Overcast
10:35 PM 43.0 °F 36.0 °F 39.2 °F 86% 29.89 in 10.0 mi North 13.8 mph 20.7 mph N/A   Overcast
10:55 PM 42.8 °F 36.6 °F 39.2 °F 87% 29.88 in 10.0 mi NNW 11.5 mph 18.4 mph N/A   Overcast
11:15 PM 43.0 °F 37.7 °F 38.7 °F 85% 29.89 in 10.0 mi NNW 9.2 mph - N/A   Overcast
11:35 PM 42.8 °F 36.6 °F 38.8 °F 86% 29.88 in 10.0 mi North 11.5 mph - N/A   Overcast
11:55 PM 42.8 °F 37.0 °F 38.8 °F 86% 29.88 in 10.0 mi NNW 10.4 mph - N/A   Overcast